Regional Weather Roundup
Issued by NWS Portland, ME

Home | Current Version | Previous Version | Text Only | Print | Product List | Glossary On
Versions: 1 2 3 4 5 6 7 8 9 10 11 12 13 14 15 16 17 18 19 20 21 22 23 24 25 26 27 28 29 30 31 32 33 34 35 36 37 38 39 40 41 42 43 44 45 46 47 48 49 50
000
ASUS41 KGYX 280310
RWRGYX
WEATHER ROUNDUP FOR MAINE AND NEW HAMPSHIRE
NATIONAL WEATHER SERVICE GRAY ME
1100 PM EDT MON JUL 27 2015

MEZ002-005-006-010-012-015-018-020-021-024-026-027-029-280400-
MAINE

CITY           SKY/WX    TMP DP  RH WIND       PRES   REMARKS
PORTLAND       CLOUDY    65  64  97 CALM      30.00R FOG
SANFORD        PTCLDY    64  61  88 NE3       30.01S
BAR HARBOR     CLOUDY    63  63 100 S7        30.02S VSB 1/4
WISCASSET      CLOUDY    64  62  93 CALM      30.02R FOG
ROCKLAND       CLOUDY    61  59  94 CALM      30.00F VSB 1/2
FRYEBURG       CLOUDY    68  67  96 CALM      30.01S
LEWISTONAUBURN MOCLDY    64  61  88 S3        30.01R
AUGUSTA        MOCLDY    66  64  93 CALM      30.01S
WATERVILLE     MOCLDY    66  64  94 CALM      29.98S
BANGOR         CLOUDY    65  64  97 S8        30.01S
GREENVILLE       N/A     62  61  96 CALM      29.99F
MILLINOCKET    MOCLDY    67  65  93 VRB3      29.99S
HOULTON        MOCLDY    67  65  93 S8        29.96F
PRESQUE ISLE   MOCLDY    64  61  88 SW3       29.94F
FRENCHVILLE    CLOUDY    61  59  93 S7        29.94S
CARIBOU        MOCLDY    62  60  93 CALM      29.94F
$$

NHZ002-005-008-009-011-012-014-280400-
NEW HAMPSHIRE

CITY           SKY/WX    TMP DP  RH WIND       PRES   REMARKS
PORTSMOUTH     MOCLDY    68  65  91 S3        29.98S
ROCHESTER      PTCLDY    68  65  90 CALM      29.99F
MANCHESTER     MOCLDY    72  69  90 S5        29.99S
CONCORD        PTCLDY    71  66  84 CALM      30.00S
LACONIA        MOCLDY    72  63  73 SW5       30.00S
PLYMOUTH       FAIR      68  68 100 CALM      30.00S FOG
BERLIN         MOCLDY    68  64  87 NW3       30.02S
WHITEFIELD     CLOUDY    69  65  86 CALM      30.01R
JAFFREY        PTCLDY    69  66  90 S5        30.04S
KEENE          PTCLDY    68  63  83 CALM      30.02S
LEBANON        MOCLDY    69  66  90 CALM      29.99S
MT WASHINGTON  FOG       54  54 100 W26         N/A  VSB 0
$$

VTZ005-007-008-280400-
VERMONT

CITY           SKY/WX    TMP DP  RH WIND       PRES   REMARKS
ST JOHNSBURY     N/A     71  65  81 MISG      29.98R
MONTPELIER     PTCLDY    65  60  84 CALM      30.05S
BURLINGTON     MOCLDY    73  65  75 CALM      29.97R
$$

MAZ007-012-024-CTZ003-RIZ002-NYZ038-NYZ072-280400-
SOUTHERN NEW ENGLAND AND NY

CITY           SKY/WX    TMP DP  RH WIND       PRES   REMARKS
BOSTON         PTCLDY    72  67  84 S9        30.01F
WORCESTER      PTCLDY    70  66  87 SW15      30.05S
NANTUCKET      PTCLDY    69  66  90 S8        30.05S
PROVIDENCE     PTCLDY    71  68  90 SW3       30.04S
HARTFORD       PTCLDY    75  67  76 S7        30.01S
ALBANY         MOCLDY    79  67  66 S7        29.98F
NEW YORK CITY  MOCLDY    79  67  66 SW6       30.01S
$$

ANZ081-ANZ082-ANZ150-NHZ014-MEZ023>029-280400-
COASTAL MARINE OBSERVATIONS

STATION/POSITION TIME  TEMP    WIND        PRES    WAVE
                       AIR SEA DIR/SP/G            HT/PER
                 (UTC) (F)     (DEG/KT/KT) (MB)    (FT/S)
MOUNT DESERT ROC 0300   64     150/  7/  7 1016.7F
MATINICUS ROCK   0200   62     170/  2/  3 1016.5R
ISLE OF SHOALS   0200   71     240/  7/  7 1015.4S
JEFFREYS LEDGE   0203      65                N/A     3/10
CASHES LEDGE BUO 0250   67                 1015.6F   2/ 8
GEORGES BANK BUO 0250   69 67  110/  6/  6 1018.0F   3/ 8
$$

.............KEY..............
   WCI - WIND CHILL
   TC  - TEMPERATURE IN CELSIUS
   VSB - VISIBILITY IN MILES
   HX  - HEAT INDEX
   FAIR- INDICATES FEW OR NO CLOUDS BELOW 12,000 FT, WITH NO
         SIGNIFICANT WEATHER AND/OR OBSTRUCTIONS TO VISIBILITY.





USA.gov is the U.S. government's official web portal to all federal, state and local government web resources and services.